Miscellaneous Local Product
Issued by NWS North Platte, NE

Home | Current Version | Previous Version | Text Only | Print | Product List | Glossary On
Versions: 1 2 3 4 5 6 7 8 9 10 11 12 13 14 15 16 17 18 19 20 21 22 23 24 25 26 27 28 29 30 31 32 33 34 35 36 37 38 39 40 41 42 43 44 45 46 47 48 49 50
000
AXUS43 KLBF 270310
MISLBF


WESTERN AND NORTH CENTRAL NEBRASKA HOURLY WEATHER ROUNDUP
NATIONAL WEATHER SERVICE NORTH PLATTE NE
1000 PM CDT TUE JUL 26 2016

NOTE: "FAIR" INDICATES FEW OR NO CLOUDS BELOW 12,000 FEET WITH NO
SIGNIFICANT WEATHER AND/OR OBSTRUCTIONS TO VISIBILITY.

NOTE: STATIONS NOT REPORTING VARIABLES SUCH AS SKY/WEATHER OR
PRESSURE ARE PROVIDED BY RAWS AND APRS NETWORKS AND ARE NOT UNDER
NATIONAL WEATHER SERVICE QUALITY CONTROL.

...OBSERVATIONS IN AND NEAR THE EASTERN PANHANDLE OF NEBRASKA...

CITY           SKY/WX    TMP DP  RH WIND       PRES   REMARKS
PINE RIDGE     CLOUDY    67  58  72 SE12G25   29.95F
CHADRON        CLOUDY    71  59  65 SE17      29.97S
ALLIANCE       CLOUDY    71  58  63 N17G29    30.03R
SIDNEY         CLOUDY    75  50  41 SW8       30.09R
CRESCENT LAKE    N/A     79  53  40 S3G18       N/A
$$

...OBSERVATIONS IN NORTHERN NEBRASKA AND FAR SOUTHERN SOUTH DAKOTA...

CITY           SKY/WX    TMP DP  RH WIND       PRES   REMARKS
WINNER         MOCLDY    71  60  68 SE20G51   29.94F
VALENTINE      TSTM      63 N/A N/A MISG      30.00F
THEDFORD       PTCLDY    79  67  66 SE10      30.00R
AINSWORTH        N/A    N/A N/A N/A NE22      30.02R
O`NEILL        CLOUDY    78  65  64 SE8       30.04R
ORD            CLEAR     76  65  68 SE6       30.00R
BROKEN BOW     PTCLDY    75  65  70 SE10      30.02R
VALENTINE NWR    N/A     80  67  64 S12G18      N/A
BUTTE            N/A     68  60  76 N18G32      N/A
HALSEY           N/A     77  65  65 SE8         N/A
EWING            N/A     72  67  86 CALM        N/A
$$

...OBSERVATIONS IN SOUTHWEST NEBRASKA AND FAR NORTHEAST COLORADO...

CITY           SKY/WX    TMP DP  RH WIND       PRES   REMARKS
WRAY           FAIR      75  48  38 SW9G16    30.02R
HOLYOKE        FAIR      73  57  56 W5        30.02S
IMPERIAL       CLOUDY    79  65  62 S5        30.00R
OGALLALA       CLOUDY    80  65  61 SW3       29.99R
NORTH PLATTE   PTCLDY    77  65  66 SE10      29.96F
MCCOOK         MOCLDY    81  64  56 SE14      29.99R
LEXINGTON      CLOUDY    77  65  67 SE10      29.99R
STAPLETON        N/A     76  67  73 CALM        N/A
GOTHENBURG       N/A     79  64  59 SE6         N/A
CALLAWAY         N/A     74  68  80 S10         N/A
$$

...OBSERVATIONS IN CENTRAL LINCOLN COUNTY AREA...

CITY           SKY/WX    TMP DP  RH WIND       PRES   REMARKS
N.P. AIRPORT   PTCLDY    77  65  66 SE10      29.96F
N.P. DOWNTOWN    N/A     79  67  66 CALM        N/A
N.P. SOUTHEAST   N/A     78  67  68 E3          N/A
N.P. HILLCREST   N/A     77  67  71 SE9         N/A
$$

...SOME OBSERVATIONS FROM AROUND THE REGION...

CITY           SKY/WX    TMP DP  RH WIND       PRES   REMARKS
DENVER         MOCLDY    78  42  27 NW7       30.13F
LARAMIE        CLOUDY    70  35  27 W15       30.28R
CHEYENNE       CLOUDY    73  45  36 NE9G18    30.21R
SCOTTSBLUFF    CLOUDY    86  40  19 W6G21     29.98F
RAPID CITY     CLOUDY    74  55  51 N10       30.02R
BISMARCK       CLOUDY    71  61  70 NE7       30.02S
PIERRE         CLOUDY    71  61  70 S12       29.94R
SIOUX FALLS    CLOUDY    78  65  63 S12       29.98R
OMAHA          PTCLDY    77  68  73 E7        30.01R
GRAND ISLAND   CLEAR     76  68  76 SE8       30.01R
KANSAS CITY    PTCLDY    78  67  68 SE8       30.01R
WICHITA        PTCLDY    82  72  71 E8        29.98S
OKLAHOMA CITY  MOCLDY    79  72  79 SE3       29.95S
DALLAS         MOCLDY    86  70  58 E9        29.91R HX  90
AMARILLO       CLEAR     78  65  63 SE14      30.07R
DODGE CITY     CLEAR     75  67  76 E6        30.03R
HAYS           CLEAR     77  63  61 S5        30.01R
GOODLAND       CLOUDY    69  61  75 S13       30.08R
$$




USA.gov is the U.S. government's official web portal to all federal, state and local government web resources and services.